sat.trackr.live / text

‹ back to catalog

STARLINK-35494

NORAD 65927 · 2025-225T

PAYLOAD ACTIVE UNKNOWN

§ Identity

Operator
Country
US
Launch date
2025-10-08
Launch site
AFWTR
Launch vehicle
Mass (kg)
RCS (m²)

Purposes: comms

External: N2YO · Heavens-Above · Gunter

§ Orbital elements

Epoch: 2026-05-25T02:06:52.864704Z

Period
93.85 min
Inclination
53.1586°
Eccentricity
0.0001110
Mean motion
15.34411945 rev/d
Perigee alt
461.9 km
Apogee alt
463.4 km
Semi-major
6,840.8 km
B*
5.9669e-4
RAAN
170.9157°
Arg perigee
83.5264°
Mean anomaly
276.5865°
Rev number
3,610

§ Raw data

STARLINK-354941 65927U 25225T   26145.08811186  .00019845  00000+0  59669-3 0  99902 65927  53.1586 170.9157 0001110  83.5264 276.5865 15.34411945 36106

JSON: /api/v1/satellites/65927 · /tle

For live sub-satellite position, see the globe view (requires WebGL).

§ Visibility from observer

Set your observer location to see the next 7 days of passes ≥ 10°. The values pass through the URL so the page stays shareable.

No JS? Fill the form by hand. The geolocation button needs JavaScript.